Terminal Aerodrome Forecast
Issued by NWS

Home | Current Version | Previous Version | Text Only | Print | Product List | Glossary On
Versions: 1 2 3 4 5 6 7 8 9 10 11 12 13 14 15 16 17 18 19 20 21 22 23 24 25 26 27
000
FTUS45 KSLC 021732
TAF36U
TAF
K36U 021732Z 0218/0318 23013G20KT P6SM FEW080 SCT150
     FM030300 VRB04KT P6SM FEW100 BKN150=

USA.gov is the U.S. government's official web portal to all federal, state and local government web resources and services.